Torna al catalogo

ARIANE 1 DEB

LostHEO
NORAD 26533·DEBRIS·🇫🇷 France

Lanciato Dec 24, 1979 da Guiana Space Centre

Loading…

Prossimi Passaggi (prossime 24 ore)

TLE

ObsoletoSource: Space-Track

Epoca: Dec 9, 2021, 22:56 UTC

1 26533U 79104P   21343.95594557 -.00000064  00000-0  00000+0 0  9992
2 26533  16.0602  80.7079 5793704 140.2452   2.5379  3.66991107292124

Traccia ARIANE 1 DEB in tempo reale con AllMySat

Download on the App Store